Regional Weather Roundup
Issued by NWS

Home | Current Version | Previous Version | Text Only | Print | Product List | Glossary Off
Versions: 1 2 3 4 5 6 7 8 9 10 11 12 13 14 15 16 17 18 19 20 21 22 23 24 25 26 27 28 29 30 31 32 33 34 35 36 37 38 39 40 41 42 43 44 45 46 47 48 49 50

000
ASUS43 KFSD 221802
RWRSD

WEATHER ROUNDUP FOR SOUTH DAKOTA
NATIONAL WEATHER SERVICE SIOUX FALLS SD
1200 PM CST WED FEB 22 2017

NOTE: "FAIR" INDICATES FEW OR NO CLOUDS BELOW 12,000 FEET WITH NO
SIGNIFICANT WEATHER AND/OR OBSTRUCTIONS TO VISIBILITY.


SDZ001>005-009-010-012>017-221900-
NORTHWEST AND NORTH CENTRAL SOUTH DAKOTA

CITY           SKY/WX    TMP DP  RH WIND       PRES   REMARKS
BUFFALO          N/A     37  33  85 NW21      29.73R
FAITH            N/A     46  37  71 NW16      29.75R
MOBRIDGE       CLOUDY    40  34  79 NW15      29.72R
$$

SDZ012>016-024>037-041>051-057-063-072>074-221900-
SOUTHWEST AND SOUTH CENTRAL SOUTH DAKOTA

CITY           SKY/WX    TMP DP  RH WIND       PRES   REMARKS
RAPID CTY ARPT SUNNY     55  22  27 NW28G36   29.74F
PIERRE         SUNNY     52  38  58 NW16      29.72S
CUSTER         SUNNY     41  18  39 W16G23    29.79S
ELLSWORTH AFB  SUNNY     53  22  29 NW25G35   29.73F
PHILIP         SUNNY     56  29  35 W25G32    29.75S
PINE RIDGE     SUNNY     53  26  35 W14G26    29.80F
SPEARFISH      FAIR      46  23  39 NW20G26   29.80S
WINNER         FAIR      58  37  45 NW20G30   29.74R
$$

SDZ004>011-016>023-039-040-221900-
NORTHEAST SOUTH DAKOTA

CITY           SKY/WX    TMP DP  RH WIND       PRES   REMARKS
ABERDEEN       PTSUNNY   42  35  76 N14       29.69R
WATERTOWN      MOSUNNY   50  43  77 N10       29.60R
BROOKINGS      SUNNY     55  41  59 W15G24    29.59S
SISSETON         N/A     40  38  93 N20G25    29.66R
$$

SDZ017-020-022-023-036>040-048>070-221900-
SOUTHEAST SOUTH DAKOTA

CITY           SKY/WX    TMP DP  RH WIND       PRES   REMARKS
SIOUX FALLS    MOSUNNY   60  43  53 W15       29.62F
HURON          SUNNY     50  42  74 NW20      29.65R
CHAMBERLAIN    SUNNY     57  41  55 NW14G20   29.72R
MITCHELL       SUNNY     60  39  45 W23       29.64S
YANKTON        SUNNY    N/A N/A N/A NW20G26   29.65S
$$

ABBREVIATIONS USED IN REMARKS
   TC - TEMPERATURE IN CELSIUS
  WCI - WIND CHILL INDEX
   HX - HEAT INDEX
  VSB - VISIBILITY





USA.gov is the U.S. government's official web portal to all federal, state and local government web resources and services.